User: anonymous
Location: Wildcat Hills Observatory
(41.6350°N, 103.6812°W)
Time: 02:46:03
(UTC-06:00)
Language:

Cosmos 1634 Rocket - Orbit

View from above orbital plane
View from above orbital plane
View from above satellite
View from above satellite

Ground track
Ground track

The orbit data is extracted from the following two-line orbital elements,

1 15598U 85022B   14231.80154855  .00000050  00000-0  35467-4 0  7062
2 15598 082.9404 154.4376 0023605 115.2143 297.4337 13.76488861478433
Epoch (UTC): 19 August 2014 19:14:13
Eccentricity: 0.0023605
inclination: 82.9404°
perigee height: 959 km
apogee height: 994 km
right ascension of ascending node: 154.4376°
argument of perigee: 115.2143°
revolutions per day: 13.76488861
mean anomaly at epoch: 297.4337°
orbit number at epoch: 47843

The dashed part of the orbit path shows where the satellite is in the earth's shadow,  

DLR